USA 130 (DSP 18)

Last updated on Jan. 20, 2021, 6:22 a.m. UTC

1 24737U 97008A   21019.69213150  .00000030  00000-0  00000-0 0  9990
2 24737  13.6701  17.9778 0001161 230.0972 128.5603  1.00266859 13099
UTC
Height (km)
Latitude
Longitude
Inclination
Orbital Period
UTC large
Height (km)
Speed (km/s)
/
Latitude / Longitude
Inclination (degrees)
Orbital Period (minutes)
Azimuth
Elevation
Range (km)
Doppler Factor
iOS Compass Heading
iOS Angle

Next 30 passes for location: Hong Kong

Rise time Rise Azimuth (degrees) Set time Set Azimuth (degrees) Duration Max altitude (degrees)

No matching passes for this satellites